Retour au catalogue

DELTA 1 DEB

ActifSSO
NORAD 2977·DEBRIS·🇺🇸 United States

Lancé Apr 20, 1967 depuis Vandenberg Space Force Base

Loading…

Prochains Passages (prochaines 24 heures)

TLE

FraisSource: Space-Track

Époque: Sep 14, 2026, 09:09 UTC

1 02977U 67036D   26257.38177225 -.00000035  00000-0  55852-4 0  9992
2 02977 101.6285 220.0061 0059962  93.4671  59.5738 12.56869378724591

Suivez DELTA 1 DEB en temps réel avec AllMySat

Download on the App Store